Weather in Alamner

Russia / Mari El Republic     56°13′42″N   46°41′33″E
temp.,
°C
wind,
m/s
gust,
m/s
humid.,
%
clouds,
%
prec.,
mm/h
press.,
hPa
HPBL,
m
4 march, thu
thu400:00−4wsw61294100 0.2 1002530
03:00−3wsw51293100 0.4 1001521
06:00−3sw51193100 0.1 998427
09:00−1sw8139199 0.3 995835
12:000wsw915100100 1.0 9911073
15:000w7158198 1.6 9911443
18:00−3w6158311 0.1 994691
21:00−6w4109332 0.1 997363
5 march, fri
fri500:00−11w36952 0.0 99897
03:00−14wnw23971 0.0 100121
06:00−16wnw229813 0.0 100220
09:00−12w24957 0.0 1004130
12:00−7w359242 0.0 1005313
15:00−5wsw479056 0.1 1006672
18:00−8wsw489497 0.1 1007153
21:00−11wsw349574 0.1 100973
6 march, sat
sat600:00−11w349692 0.0 101062
03:00−13wnw369692 0.1 1012123
06:00−15wnw2397100 0.1 101379
09:00−16wnw359394 0.1 1015231
12:00−12wnw358954 0.0 1015518
15:00−11wnw358677 0.1 1014821
18:00−14w2295100 0.1 101421
21:00−14w2297100 0.2 101430
7 march, sun
sun700:00−17wsw239886 0.0 101320
03:00−17sw229869 0.1 101220
06:00−19sw239980 0.0 101120
09:00−14ssw479346 0.0 1009221
12:00−10s6108453 0.0 1006454
15:00−8s7138777 0.0 1003750
18:00−7ssw81493100 0.8 1000945
21:00−6s81492100 1.6 996895
8 march, mon
mon800:00−5ssw71294100 1.1 993778
03:00−10wsw61487100 1.3 994658
06:00−12wsw6138612 0.0 996357
09:00−11sw5109155 0.1 997407
12:00−7sw598695 0.0 997559
15:00−5ssw368298 0.0 997754
18:00−10ne1186100 0.0 99621
21:00−11wnw2387100 0.0 99823